📊 Raw Sensor Data
Showing records 38676 to 38700 of 84,933 total
| ID | Distance (ft) | Battery V | Battery A | Int Temp (°F) | Int Humid (%) | Ext Temp (°F) | Solar V | RSSI | SNR | Time Stamp |
|---|---|---|---|---|---|---|---|---|---|---|
| 46270 | 15.6 | 4.01 | 0 | 79 | 43 | 79 | 5.10 | -71 | 8 | 07/14/2025 10:15 AM |
| 46269 | 15.6 | 4.12 | 0 | 78 | 43 | 79 | 5.10 | -70 | 8 | 07/14/2025 10:00 AM |
| 46268 | 15.6 | 4.01 | 0 | 77 | 43 | 77 | 5.10 | -71 | 7 | 07/14/2025 09:45 AM |
| 46267 | 15.6 | 4.01 | 0 | 76 | 43 | 78 | 5.10 | -71 | 8 | 07/14/2025 09:30 AM |
| 46266 | 15.6 | 4.01 | 0 | 74 | 44 | 77 | 5.10 | -71 | 8 | 07/14/2025 09:15 AM |
| 46265 | 15.6 | 4.10 | 0 | 73 | 43 | 76 | 5.10 | -71 | 8 | 07/14/2025 09:00 AM |
| 46264 | 15.6 | 4.01 | 0 | 72 | 44 | 77 | 5.10 | -71 | 8 | 07/14/2025 08:45 AM |
| 46263 | 15.6 | 4.01 | 0 | 70 | 43 | 72 | 5.10 | -69 | 8 | 07/14/2025 08:30 AM |
| 46262 | 15.5 | 4.02 | 0 | 67 | 43 | 70 | 5.10 | -71 | 8 | 07/14/2025 08:00 AM |
| 46261 | 15.5 | 4.09 | 48 | 66 | 42 | 67 | 4.50 | -71 | 8 | 07/14/2025 07:45 AM |
| 46260 | 15.5 | 4.04 | 10 | 65 | 42 | 69 | 4.50 | -70 | 8 | 07/14/2025 07:30 AM |
| 46259 | 15.5 | 4.04 | 5 | 63 | 41 | 70 | 4.50 | -70 | 7 | 07/14/2025 07:15 AM |
| 46258 | 15.4 | 4.02 | 0 | 61 | 41 | 70 | 4.50 | -71 | 8 | 07/14/2025 07:00 AM |
| 46257 | 15.3 | 3.96 | 0 | 58 | 42 | 67 | 4.50 | -71 | 8 | 07/14/2025 06:45 AM |
| 46256 | 15.3 | 3.95 | 0 | 55 | 43 | 62 | 4.50 | -70 | 7 | 07/14/2025 06:30 AM |
| 46255 | 15.2 | 3.94 | -6 | 54 | 43 | 57 | 4.50 | -70 | 8 | 07/14/2025 06:15 AM |
| 46254 | 15.2 | 3.93 | -25 | 53 | 43 | 56 | 4.20 | -70 | 8 | 07/14/2025 06:00 AM |
| 46253 | 15.2 | 4.00 | -5 | 53 | 43 | 55 | 1.30 | -71 | 8 | 07/14/2025 05:45 AM |
| 46252 | 15.2 | 3.94 | -5 | 53 | 43 | 54 | 0.00 | -71 | 8 | 07/14/2025 05:30 AM |
| 46251 | 15.2 | 3.94 | -5 | 53 | 44 | 54 | 0.00 | -71 | 8 | 07/14/2025 05:15 AM |
| 46250 | 15.2 | 3.94 | -5 | 53 | 44 | 54 | 0.00 | -71 | 8 | 07/14/2025 05:00 AM |
| 46249 | 15.2 | 3.94 | -5 | 53 | 44 | 55 | 0.10 | -71 | 8 | 07/14/2025 04:45 AM |
| 46248 | 15.2 | 4.01 | -5 | 54 | 44 | 56 | 0.10 | -72 | 8 | 07/14/2025 04:30 AM |
| 46247 | 15.2 | 3.95 | -5 | 54 | 44 | 56 | 0.00 | -72 | 8 | 07/14/2025 04:15 AM |
| 46246 | 15.2 | 3.95 | -5 | 54 | 44 | 58 | 0.00 | -71 | 8 | 07/14/2025 04:00 AM |